sat.trackr.live / text

‹ back to catalog

STARLINK-6290

NORAD 57328 · 2023-099A

PAYLOAD ACTIVE UNKNOWN

§ Identity

Operator
Country
US
Launch date
2023-07-16
Launch site
AFETR
Launch vehicle
Mass (kg)
RCS (m²)

Purposes: comms

External: N2YO · Heavens-Above · Gunter

§ Orbital elements

Epoch: 2026-09-20T15:06:40.588416Z

Period
94.27 min
Inclination
43.0056°
Eccentricity
0.0000976
Mean motion
15.27577066 rev/d
Perigee alt
482.4 km
Apogee alt
483.7 km
Semi-major
6,861.2 km
B*
8.4831e-6
RAAN
231.1727°
Arg perigee
314.6151°
Mean anomaly
45.4621°
Rev number
17,680

§ Raw data

STARLINK-62901 57328U 23099A   26263.62963644 -.00000029  00000+0  84831-5 0  99972 57328  43.0056 231.1727 0000976 314.6151  45.4621 15.27577066176801

JSON: /api/v1/satellites/57328 · /tle

For live sub-satellite position, see the globe view (requires WebGL).

§ Visibility from observer

Set your observer location to see the next 7 days of passes ≥ 10°. The values pass through the URL so the page stays shareable.

No JS? Fill the form by hand. The geolocation button needs JavaScript.